User: anonymous   Login
Location: Unspecified
(0.0000°N, 0.0000°E)
Time: 00:04:12
(UTC+00:00)
Language:

STARLINK-34556 - Orbit

View from above orbital plane
View from above orbital plane
View from above satellite
View from above satellite

Ground track
Ground track

The orbit is defined by the following mean orbital elements,

1 64733U          26145.47326502 +.00000000 +00000-0 +23977-3 0 00004
2 64733  53.1583 181.1367 0001114  85.8096 274.3034 15.34392809    07
Epoch (UTC): 25 May 2026 11:21:30
Eccentricity: 0.0001114
inclination: 53.1583°
perigee height: 462 km
apogee height: 463 km
right ascension of ascending node: 181.1367°
argument of perigee: 85.8096°
revolutions per day: 15.34392809
mean anomaly at epoch: 274.3034°

The dashed part of the orbit path shows where the satellite is in the earth's shadow,  

DLR